This demonstration page uses our WeatherBlox Daily Observations layout. Learn more.

Left ArrowRight Arrow

Hourly Observations for May 25, 2015

Temp ( °F °C ) Dew Point ( °F °C ) Humidity (%) Winds ( mph kmh ) Pressure ( in mb ) Visibility ( mi km ) Precip ( " mm )
12:58 am 00:58 Partly Cloudy 62 16.4 60 15.4 94 94 SSE 2 4 29.77 1008 10 16 0.00 0.00
1:58 am 01:58 Mostly Cloudy 61 16.3 60 15.5 95 95 S 5 7 29.77 1008 10 16 0.00 0.00
2:58 am 02:58 Mostly Cloudy 62 16.4 60 15.8 96 96 SSE 3 6 29.77 1008 10 16 0.00 0.00
3:58 am 03:58 Partly Cloudy 61 16.1 60 15.5 96 96 SE 2 4 29.75 1007 10 16 0.00 0.00
4:10 am 04:10 Mostly Clear with Mist and Fog 61 16 59 15 94 94 Calm 29.71 1006 3 4 0.00 0.00
4:16 am 04:16 Mostly Clear with Mist and Fog 59 15 59 15 100 100 SSE 2 4 29.71 1006 3 5 0.00 0.00
4:58 am 04:58 Mostly Cloudy 61 16.1 61 16 99 99 SE 5 7 29.76 1008 10 16 0.00 0.00
5:27 am 05:27 Mostly Clear 61 16 61 16 100 100 SSE 8 13 29.74 1007 7 11 0.00 0.00
5:36 am 05:36 Mostly Cloudy 61 16 61 16 100 100 SSE 6 9 29.74 1007 8 13 0.00 0.00
5:47 am 05:47 Mostly Cloudy 61 16 61 16 100 100 S 7 11 29.74 1007 10 16 0.00 0.00
5:58 am 05:58 Mostly Cloudy 61 16.1 61 16.1 100 100 SSE 7 11 29.77 1008 10 16 0.00 0.00
6:03 am 06:03 Mostly Cloudy 61 16 61 16 100 100 SE 5 7 29.74 1007 10 16 0.00 0.00
6:51 am 06:51 Mostly Cloudy 63 17 61 16 94 94 S 5 7 29.77 1008 10 16 0.00 0.00
6:58 am 06:58 Mostly Cloudy 62 16.7 62 16.5 99 99 S 6 9 29.81 1009 10 16 0.00 0.00
7:58 am 07:58 Mostly Cloudy 64 17.7 60 15.7 88 88 S 10 17 29.80 1009 10 16 0.00 0.00
8:01 am 08:01 Mostly Cloudy 64 18 61 16 88 88 S 10 17 29.77 1008 10 16 0.00 0.00
8:58 am 08:58 Mostly Sunny 65 18.5 60 15.4 82 82 SSW 5 7 29.78 1009 10 16 0.00 0.00
9:58 am 09:58 Mostly Sunny 68 19.8 61 16 79 79 VRB 5 7 29.82 1010 10 16 0.00 0.00
10:58 am 10:58 Sunny 71 21.7 57 13.9 61 61 S 10 17 29.80 1009 10 16 0.00 0.00
11:58 am 11:58 Sunny 73 23 59 15.2 62 62 S 12 19 29.78 1009 10 16 0.00 0.00
12:58 pm 12:58 Partly Cloudy 75 24.1 59 14.8 56 56 SSW 14 22 29.80 1009 10 16 0.00 0.00
1:58 pm 13:58 Mostly Sunny 77 25.1 58 14.4 52 52 SSW 10 17 29.78 1009 10 16 0.00 0.00
2:58 pm 14:58 Partly Cloudy 79 26 60 15.8 53 53 S 12 19 29.77 1008 10 16 0.00 0.00
3:58 pm 15:58 Sunny 79 26.3 62 16.9 56 56 S 15 24 29.76 1008 10 16 0.00 0.00
4:58 pm 16:58 Mostly Sunny 78 25.8 61 16.3 56 56 S 12 19 29.74 1007 10 16 0.00 0.00
5:58 pm 17:58 Sunny 80 26.4 62 16.5 55 55 SSE 13 20 29.72 1007 10 16 0.00 0.00
6:58 pm 18:58 Sunny 76 24.6 64 17.7 66 66 SSE 21 33 29.73 1007 10 16 0.00 0.00
7:16 pm 19:16 Partly Cloudy with Thunderstorms 72 22 61 16 69 69 SSE 22 35 29.71 1006 10 16 0.00 0.00
7:19 pm 19:19 Mostly Cloudy with Thunderstorms 72 22 61 16 69 69 SSE 18 30 29.71 1006 10 16 0.00 0.00
7:46 pm 19:46 Mostly Cloudy with Light Rain and Scattered Storms 68 20 61 16 78 78 SE 7 11 29.74 1007 7 11 0.00 0.00
7:55 pm 19:55 Partly Cloudy with Nearby Thunderstorms 68 20 61 16 78 78 S 10 17 29.74 1007 10 16 0.00 0.00
7:58 pm 19:58 Partly Cloudy with Nearby Thunderstorms 67 19.7 60 15.8 78 78 S 9 15 29.78 1008 10 16 0.08 2.03
8:03 pm 20:03 Mostly Cloudy with Light Rain 68 20 61 16 78 78 S 17 28 29.77 1008 9 14 0.00 0.00
8:10 pm 20:10 Mostly Cloudy with Heavy Rain 68 20 61 16 78 78 S 20 31 29.77 1008 3 5 0.00 0.00
8:12 pm 20:12 Mostly Cloudy with Strong Thunderstorms 66 19 61 16 83 83 S 22 35 29.77 1008 3 5 0.00 0.00
8:19 pm 20:19 Mostly Cloudy with Thunderstorms 66 19 61 16 83 83 S 21 33 29.77 1008 5 8 0.00 0.00
8:22 pm 20:22 Mostly Cloudy with Strong Thunderstorms 66 19 61 16 83 83 SSE 15 24 29.77 1008 4 6 0.00 0.00
8:29 pm 20:29 Mostly Cloudy with Light Rain 66 19 59 15 78 78 SSE 20 31 29.77 1008 7 11 0.00 0.00
8:32 pm 20:32 Mostly Cloudy with Light Rain 66 19 59 15 78 78 SSE 18 30 29.77 1008 10 16 0.00 0.00
8:39 pm 20:39 Mostly Cloudy 66 19 61 16 83 83 SSE 20 31 29.77 1008 10 16 0.00 0.00
8:58 pm 20:58 Mostly Clear 65 18.1 61 16.1 88 88 SE 18 30 29.76 1008 10 16 0.20 5.08
9:58 pm 21:58 Mostly Clear 64 17.6 60 15.5 88 88 S 7 11 29.80 1009 10 16 0.00 0.00
10:58 pm 22:58 Partly Cloudy 63 17 60 15.5 91 91 WNW 1 2 29.80 1009 10 16 0.00 0.00
11:58 pm 23:58 Clear 61 16.1 59 15.2 94 94 E 3 6 29.78 1009 10 16 0.00 0.00

Powered by AerisWeather